Location: DARK SKY Beskydy - Park tmavé oblohy, www.darkskybeskydy.cz
(49.4926°N, 18.5016°E)
Time: 04:53:54
(UTC+01:00)

N. Korean satellite - Pass Details

Date: 09 December 2022
Orbit: 407 x 441 km, 97.3° (Epoch: 05 February)

Event Time Altitude Azimuth Distance (km) Brightness Sun altitude
Rises 16:21:12 0° 175° (S) 2,468 10.5 -5.6°
Reaches altitude 10° 16:23:14 10° 179° (S) 1,607 9.6 -5.9°
Maximum altitude 16:26:38 57° 259° (W) 554 7.3 -6.4°
Drops below altitude 10° 16:30:07 10° 340° (NNW) 1,637 9.2 -6.9°
Sets 16:32:13 0° 344° (NNW) 2,521 10.1 -7.2°
